Photometre #77[Polarized_P] Kyiv AOT

File : 20190928_77.hum

28/09/2019,04:49:26,TEMP=8.0,BA=5.60,STAT.A=9.5,ExtBa=12.60
28/09/2019,04:53:32,TEMP=8.1,BA=5.36,STAT.A=9.5,ExtBa=12.53
28/09/2019,04:58:20,TEMP=8.2,BA=5.36,STAT.A=9.5,ExtBa=12.48
28/09/2019,05:04:04,TEMP=8.4,BA=5.48,STAT.A=9.5,ExtBa=12.47
28/09/2019,05:10:38,TEMP=8.6,BA=5.60,STAT.h
28/09/2019,05:19:13,TEMP=8.6,BA=5.60,STAT.h
28/09/2019,05:30:09,TEMP=8.6,BA=5.60,STAT.h
28/09/2019,05:35:24,TEMP=8.6,BA=5.60,STAT.h
28/09/2019,05:41:19,TEMP=8.6,BA=5.60,STAT.h
28/09/2019,05:48:02,TEMP=8.6,BA=5.60,STAT.h
28/09/2019,05:55:43,TEMP=8.6,BA=5.60,STAT.h
28/09/2019,06:05:00,TEMP=10.6,BA=5.64,STAT.C=9.5,ExtBa=12.58
28/09/2019,06:15:28,TEMP=10.9,BA=5.64,STAT.A=9.5,ExtBa=12.81
28/09/2019,06:28:01,TEMP=11.8,BA=5.64,STAT.A=9.5,ExtBa=13.65
28/09/2019,06:43:27,TEMP=13.3,BA=5.64,STAT.A=9.5,ExtBa=13.90
28/09/2019,06:49:21,TEMP=13.9,BA=5.64,STAT.F
28/09/2019,07:04:19,TEMP=14.9,BA=5.60,STAT.D=9.5,ExtBa=13.33
28/09/2019,07:19:19,TEMP=14.6,BA=5.64,STAT.D=9.5,ExtBa=13.95
28/09/2019,07:34:19,TEMP=15.9,BA=5.64,STAT.D=9.5,ExtBa=14.04
28/09/2019,07:49:21,TEMP=16.4,BA=5.64,STAT.F
28/09/2019,08:04:19,TEMP=17.0,BA=5.60,STAT.D=9.5,ExtBa=13.89
28/09/2019,08:19:19,TEMP=16.8,BA=5.64,STAT.D=10.0,ExtBa=14.33
28/09/2019,08:34:19,TEMP=16.9,BA=5.64,STAT.D=10.0,ExtBa=13.50
28/09/2019,08:49:21,TEMP=17.2,BA=5.68,STAT.F
28/09/2019,09:04:19,TEMP=18.0,BA=5.60,STAT.D=9.5,ExtBa=14.31
28/09/2019,09:19:19,TEMP=18.2,BA=5.64,STAT.D=10.0,ExtBa=14.54
28/09/2019,09:34:19,TEMP=18.4,BA=5.64,STAT.D=10.0,ExtBa=13.93
28/09/2019,09:49:21,TEMP=18.8,BA=5.64,STAT.F
28/09/2019,10:04:19,TEMP=19.7,BA=5.60,STAT.D=9.5,ExtBa=14.60
28/09/2019,10:19:19,TEMP=19.2,BA=5.68,STAT.D=10.0,ExtBa=14.72
28/09/2019,10:34:19,TEMP=19.3,BA=5.84,STAT.D=10.0,ExtBa=14.43
28/09/2019,10:49:21,TEMP=18.5,BA=5.64,STAT.F
28/09/2019,11:04:19,TEMP=18.8,BA=5.60,STAT.D=9.5,ExtBa=13.40
28/09/2019,11:19:19,TEMP=18.3,BA=5.64,STAT.D=10.0,ExtBa=14.18
28/09/2019,11:34:19,TEMP=18.4,BA=5.64,STAT.D=10.0,ExtBa=14.17
28/09/2019,11:49:21,TEMP=18.1,BA=5.64,STAT.F
28/09/2019,12:04:19,TEMP=17.7,BA=5.64,STAT.D=10.0,ExtBa=13.47
28/09/2019,12:19:19,TEMP=17.6,BA=5.64,STAT.D=10.0,ExtBa=13.38
28/09/2019,12:34:19,TEMP=17.5,BA=5.64,STAT.D=10.0,ExtBa=13.29
28/09/2019,12:49:21,TEMP=17.1,BA=5.64,STAT.F
28/09/2019,12:55:14,TEMP=17.0,BA=5.52,STAT.A=10.0,ExtBa=12.85
28/09/2019,13:10:39,TEMP=16.7,BA=5.60,STAT.A=10.0,ExtBa=12.79
28/09/2019,13:20:58,TEMP=16.9,BA=5.60,STAT.h
28/09/2019,13:22:50,TEMP=16.9,BA=5.60,STAT.h
28/09/2019,13:33:18,TEMP=16.9,BA=5.60,STAT.h
28/09/2019,13:42:35,TEMP=15.4,BA=5.60,STAT.A=10.0,ExtBa=12.78
28/09/2019,13:50:16,TEMP=15.4,BA=5.40,STAT.A=10.0,ExtBa=12.72
28/09/2019,13:56:37,TEMP=15.6,BA=5.40,STAT.h
28/09/2019,14:02:32,TEMP=15.6,BA=5.60,STAT.h
28/09/2019,14:07:47,TEMP=15.6,BA=5.60,STAT.h
28/09/2019,14:18:43,TEMP=15.6,BA=5.60,STAT.h
28/09/2019,14:27:18,TEMP=15.6,BA=5.56,STAT.h
28/09/2019,14:34:36,TEMP=14.2,BA=5.56,STAT.A=10.0,ExtBa=12.78
28/09/2019,14:40:19,TEMP=14.2,BA=5.48,STAT.A=9.5,ExtBa=12.72
28/09/2019,14:45:08,TEMP=14.1,BA=5.48,STAT.A=9.5,ExtBa=12.67
28/09/2019,14:49:14,TEMP=14.1,BA=5.48,STAT.A=9.5,ExtBa=12.66
28/09/2019,14:50:05,TEMP=14.1,BA=5.32,STAT.h